Year,Month,Day,Hour,Minute,Value (Times are PST for temperature in C)
2006,10,11,00,00,8.20
2006,10,11,00,01,8.20
2006,10,11,00,02,8.20
2006,10,11,00,03,8.20
2006,10,11,00,04,8.10
2006,10,11,00,05,8.10
2006,10,11,00,06,8.10
2006,10,11,00,07,8.10
2006,10,11,00,08,8.10
2006,10,11,00,09,8.10
2006,10,11,00,10,8.10
2006,10,11,00,11,8.00
2006,10,11,00,12,8.00
2006,10,11,00,13,8.00
2006,10,11,00,14,8.00
2006,10,11,00,15,8.00
2006,10,11,00,16,8.00
2006,10,11,00,17,8.00
2006,10,11,00,18,8.00
2006,10,11,00,19,8.00
2006,10,11,00,20,8.00
2006,10,11,00,21,8.00
2006,10,11,00,22,8.00
2006,10,11,00,23,8.00
2006,10,11,00,24,8.00
2006,10,11,00,25,8.00
2006,10,11,00,26,7.90
2006,10,11,00,27,7.90
2006,10,11,00,28,7.90
2006,10,11,00,29,7.90
2006,10,11,00,30,7.90
2006,10,11,00,31,7.90
2006,10,11,00,32,7.90
2006,10,11,00,33,7.90
2006,10,11,00,34,7.90
2006,10,11,00,35,7.90
2006,10,11,00,36,7.90
2006,10,11,00,37,7.90
2006,10,11,00,38,7.90
2006,10,11,00,39,7.90
2006,10,11,00,40,7.90
2006,10,11,00,41,7.90
2006,10,11,00,42,7.90
2006,10,11,00,43,7.80
2006,10,11,00,44,7.80
2006,10,11,00,45,7.80
2006,10,11,00,46,7.80
2006,10,11,00,47,7.80
2006,10,11,00,48,7.80
2006,10,11,00,49,7.80
2006,10,11,00,50,7.80
2006,10,11,00,51,7.80
2006,10,11,00,52,7.80
2006,10,11,00,53,7.80
2006,10,11,00,54,7.80
2006,10,11,00,55,7.80
2006,10,11,00,56,7.80
2006,10,11,00,57,7.80
2006,10,11,00,58,7.80
2006,10,11,00,59,7.80
2006,10,11,01,00,7.80
2006,10,11,01,01,7.80
2006,10,11,01,02,7.80
2006,10,11,01,03,7.80
2006,10,11,01,04,7.80
2006,10,11,01,05,7.80
2006,10,11,01,06,7.70
2006,10,11,01,07,7.70
2006,10,11,01,08,7.70
2006,10,11,01,09,7.70
2006,10,11,01,10,7.70
2006,10,11,01,11,7.70
2006,10,11,01,12,7.70
2006,10,11,01,13,7.60
2006,10,11,01,14,7.60
2006,10,11,01,15,7.60
2006,10,11,01,16,7.60
2006,10,11,01,17,7.60
2006,10,11,01,18,7.60
2006,10,11,01,19,7.60
2006,10,11,01,20,7.60
2006,10,11,01,21,7.50
2006,10,11,01,22,7.40
2006,10,11,01,23,7.30
2006,10,11,01,24,7.10
2006,10,11,01,25,7.00
2006,10,11,01,26,6.90
2006,10,11,01,27,6.80
2006,10,11,01,28,6.80
2006,10,11,01,29,6.70
2006,10,11,01,30,6.70
2006,10,11,01,31,6.70
2006,10,11,01,32,6.70
2006,10,11,01,33,6.70
2006,10,11,01,34,6.70
2006,10,11,01,35,6.70
2006,10,11,01,36,6.80
2006,10,11,01,37,6.80
2006,10,11,01,38,6.90
2006,10,11,01,39,6.90
2006,10,11,01,40,7.00
2006,10,11,01,41,7.00
2006,10,11,01,42,7.10
2006,10,11,01,43,7.20
2006,10,11,01,44,7.20
2006,10,11,01,45,7.30
2006,10,11,01,46,7.30
2006,10,11,01,47,7.30
2006,10,11,01,48,7.30
2006,10,11,01,49,7.30
2006,10,11,01,50,7.20
2006,10,11,01,51,7.20
2006,10,11,01,52,7.20
2006,10,11,01,53,7.20
2006,10,11,01,54,7.20
2006,10,11,01,55,7.20
2006,10,11,01,56,7.20
2006,10,11,01,57,7.20
2006,10,11,01,58,7.20
2006,10,11,01,59,7.20
2006,10,11,02,00,7.20
2006,10,11,02,01,7.20
2006,10,11,02,02,7.10
2006,10,11,02,03,7.10
2006,10,11,02,04,7.10
2006,10,11,02,05,7.10
2006,10,11,02,06,7.10
2006,10,11,02,07,7.10
2006,10,11,02,08,7.10
2006,10,11,02,09,7.10
2006,10,11,02,10,7.10
2006,10,11,02,11,7.10
2006,10,11,02,12,7.10
2006,10,11,02,13,7.10
2006,10,11,02,14,7.10
2006,10,11,02,15,7.10
2006,10,11,02,16,7.10
2006,10,11,02,17,7.10
2006,10,11,02,18,7.10
2006,10,11,02,19,7.10
2006,10,11,02,20,7.10
2006,10,11,02,21,7.20
2006,10,11,02,22,7.20
2006,10,11,02,23,7.20
2006,10,11,02,24,7.30
2006,10,11,02,25,7.30
2006,10,11,02,26,7.30
2006,10,11,02,27,7.30
2006,10,11,02,28,7.30
2006,10,11,02,29,7.30
2006,10,11,02,30,7.30
2006,10,11,02,31,7.30
2006,10,11,02,32,7.30
2006,10,11,02,33,7.30
2006,10,11,02,34,7.30
2006,10,11,02,35,7.30
2006,10,11,02,36,7.30
2006,10,11,02,37,7.30
2006,10,11,02,38,7.40
2006,10,11,02,39,7.50
2006,10,11,02,40,7.50
2006,10,11,02,41,7.50
2006,10,11,02,42,7.40
2006,10,11,02,43,7.30
2006,10,11,02,44,7.10
2006,10,11,02,45,7.00
2006,10,11,02,46,7.00
2006,10,11,02,47,7.00
2006,10,11,02,48,7.00
2006,10,11,02,49,7.00
2006,10,11,02,50,6.90
2006,10,11,02,51,6.90
2006,10,11,02,52,6.90
2006,10,11,02,53,6.90
2006,10,11,02,54,6.90
2006,10,11,02,55,6.90
2006,10,11,02,56,7.10
2006,10,11,02,57,7.30
2006,10,11,02,58,7.30
2006,10,11,02,59,7.20
2006,10,11,03,00,7.20
2006,10,11,03,01,7.20
2006,10,11,03,02,7.20
2006,10,11,03,03,7.20
2006,10,11,03,04,7.20
2006,10,11,03,05,7.10
2006,10,11,03,06,7.10
2006,10,11,03,07,7.00
2006,10,11,03,08,7.00
2006,10,11,03,09,6.90
2006,10,11,03,10,6.90
2006,10,11,03,11,6.90
2006,10,11,03,12,6.90
2006,10,11,03,13,6.90
2006,10,11,03,14,6.90
2006,10,11,03,15,6.80
2006,10,11,03,16,6.80
2006,10,11,03,17,6.80
2006,10,11,03,18,6.80
2006,10,11,03,19,6.80
2006,10,11,03,20,6.80
2006,10,11,03,21,6.80
2006,10,11,03,22,6.80
2006,10,11,03,23,6.80
2006,10,11,03,24,6.80
2006,10,11,03,25,6.80
2006,10,11,03,26,6.80
2006,10,11,03,27,6.80
2006,10,11,03,28,6.80
2006,10,11,03,29,6.80
2006,10,11,03,30,6.70
2006,10,11,03,31,6.70
2006,10,11,03,32,6.70
2006,10,11,03,33,6.70
2006,10,11,03,34,6.60
2006,10,11,03,35,6.60
2006,10,11,03,36,6.60
2006,10,11,03,37,6.60
2006,10,11,03,38,6.60
2006,10,11,03,39,6.60
2006,10,11,03,40,6.60
2006,10,11,03,41,6.50
2006,10,11,03,42,6.40
2006,10,11,03,43,6.40
2006,10,11,03,44,6.40
2006,10,11,03,45,6.40
2006,10,11,03,46,6.40
2006,10,11,03,47,6.40
2006,10,11,03,48,6.40
2006,10,11,03,49,6.40
2006,10,11,03,50,6.40
2006,10,11,03,51,6.40
2006,10,11,03,52,6.40
2006,10,11,03,53,6.40
2006,10,11,03,54,6.40
2006,10,11,03,55,6.40
2006,10,11,03,56,6.30
2006,10,11,03,57,6.30
2006,10,11,03,58,6.30
2006,10,11,03,59,6.30
2006,10,11,04,00,6.30
2006,10,11,04,01,6.30
2006,10,11,04,02,6.30
2006,10,11,04,03,6.30
2006,10,11,04,04,6.30
2006,10,11,04,05,6.30
2006,10,11,04,06,6.30
2006,10,11,04,07,6.30
2006,10,11,04,08,6.30
2006,10,11,04,09,6.30
2006,10,11,04,10,6.30
2006,10,11,04,11,6.30
2006,10,11,04,12,6.30
2006,10,11,04,13,6.30
2006,10,11,04,14,6.40
2006,10,11,04,15,6.40
2006,10,11,04,16,6.40
2006,10,11,04,17,6.50
2006,10,11,04,18,6.60
2006,10,11,04,19,6.60
2006,10,11,04,20,6.60
2006,10,11,04,21,6.60
2006,10,11,04,22,6.60
2006,10,11,04,23,6.70
2006,10,11,04,24,6.70
2006,10,11,04,25,6.60
2006,10,11,04,26,6.60
2006,10,11,04,27,6.60
2006,10,11,04,28,6.60
2006,10,11,04,29,6.60
2006,10,11,04,30,6.60
2006,10,11,04,31,6.60
2006,10,11,04,32,6.60
2006,10,11,04,33,6.40
2006,10,11,04,34,6.40
2006,10,11,04,35,6.40
2006,10,11,04,36,6.40
2006,10,11,04,37,6.40
2006,10,11,04,38,6.40
2006,10,11,04,39,6.40
2006,10,11,04,40,6.40
2006,10,11,04,41,6.40
2006,10,11,04,42,6.40
2006,10,11,04,43,6.40
2006,10,11,04,44,6.40
2006,10,11,04,45,6.40
2006,10,11,04,46,6.30
2006,10,11,04,47,6.30
2006,10,11,04,48,6.30
2006,10,11,04,49,6.30
2006,10,11,04,50,6.30
2006,10,11,04,51,6.20
2006,10,11,04,52,6.20
2006,10,11,04,53,6.20
2006,10,11,04,54,6.20
2006,10,11,04,55,6.20
2006,10,11,04,56,6.20
2006,10,11,04,57,6.20
2006,10,11,04,58,6.20
2006,10,11,04,59,6.20
2006,10,11,05,00,6.20
2006,10,11,05,01,6.20
2006,10,11,05,02,6.10
2006,10,11,05,03,6.10
2006,10,11,05,04,6.10
2006,10,11,05,05,6.10
2006,10,11,05,06,6.10
2006,10,11,05,07,6.00
2006,10,11,05,08,6.00
2006,10,11,05,09,6.00
2006,10,11,05,10,6.00
2006,10,11,05,11,6.00
2006,10,11,05,12,6.00
2006,10,11,05,13,6.00
2006,10,11,05,14,6.00
2006,10,11,05,15,6.00
2006,10,11,05,16,6.10
2006,10,11,05,17,6.20
2006,10,11,05,18,6.20
2006,10,11,05,19,6.20
2006,10,11,05,20,6.20
2006,10,11,05,21,6.20
2006,10,11,05,22,6.10
2006,10,11,05,23,6.10
2006,10,11,05,24,6.00
2006,10,11,05,25,6.00
2006,10,11,05,26,6.00
2006,10,11,05,27,6.00
2006,10,11,05,28,6.00
2006,10,11,05,29,6.00
2006,10,11,05,30,6.00
2006,10,11,05,31,6.00
2006,10,11,05,32,6.00
2006,10,11,05,33,6.00
2006,10,11,05,34,6.00
2006,10,11,05,35,6.10
2006,10,11,05,36,6.10
2006,10,11,05,37,6.10
2006,10,11,05,38,6.10
2006,10,11,05,39,6.10
2006,10,11,05,40,6.10
2006,10,11,05,41,6.00
2006,10,11,05,42,6.00
2006,10,11,05,43,6.00
2006,10,11,05,44,6.00
2006,10,11,05,45,6.00
2006,10,11,05,46,6.00
2006,10,11,05,47,5.90
2006,10,11,05,48,5.90
2006,10,11,05,49,5.90
2006,10,11,05,50,5.90
2006,10,11,05,51,5.80
2006,10,11,05,52,5.80
2006,10,11,05,53,5.80
2006,10,11,05,54,5.70
2006,10,11,05,55,5.70
2006,10,11,05,56,5.70
2006,10,11,05,57,5.70
2006,10,11,05,58,5.70
2006,10,11,05,59,5.70
2006,10,11,06,00,5.70
2006,10,11,06,01,5.70
2006,10,11,06,02,5.70
2006,10,11,06,03,5.80
2006,10,11,06,04,5.80
2006,10,11,06,05,5.80
2006,10,11,06,06,5.90
2006,10,11,06,07,5.90
2006,10,11,06,08,5.90
2006,10,11,06,09,5.90
2006,10,11,06,10,5.80
2006,10,11,06,11,5.80
2006,10,11,06,12,5.80
2006,10,11,06,13,5.80
2006,10,11,06,14,5.70
2006,10,11,06,15,5.70
2006,10,11,06,16,5.70
2006,10,11,06,17,5.60
2006,10,11,06,18,5.60
2006,10,11,06,19,5.60
2006,10,11,06,20,5.60
2006,10,11,06,21,5.60
2006,10,11,06,22,5.60
2006,10,11,06,23,5.70
2006,10,11,06,24,5.70
2006,10,11,06,25,5.70
2006,10,11,06,26,5.70
2006,10,11,06,27,5.70
2006,10,11,06,28,5.70
2006,10,11,06,29,5.70
2006,10,11,06,30,5.70
2006,10,11,06,31,5.70
2006,10,11,06,32,5.70
2006,10,11,06,33,5.70
2006,10,11,06,34,5.60
2006,10,11,06,35,5.60
2006,10,11,06,36,5.60
2006,10,11,06,37,5.60
2006,10,11,06,38,5.60
2006,10,11,06,39,5.60
2006,10,11,06,40,5.60
2006,10,11,06,41,5.60
2006,10,11,06,42,5.60
2006,10,11,06,43,5.60
2006,10,11,06,44,5.60
2006,10,11,06,45,5.60
2006,10,11,06,46,5.60
2006,10,11,06,47,5.60
2006,10,11,06,48,5.60
2006,10,11,06,49,5.60
2006,10,11,06,50,5.60
2006,10,11,06,51,5.60
2006,10,11,06,52,5.50
2006,10,11,06,53,5.50
2006,10,11,06,54,5.50
2006,10,11,06,55,5.50
2006,10,11,06,56,5.50
2006,10,11,06,57,5.40
2006,10,11,06,58,5.40
2006,10,11,06,59,5.40
2006,10,11,07,00,5.40
2006,10,11,07,01,5.40
2006,10,11,07,02,5.50
2006,10,11,07,03,5.50
2006,10,11,07,04,5.50
2006,10,11,07,05,5.50
2006,10,11,07,06,5.50
2006,10,11,07,07,5.60
2006,10,11,07,08,5.60
2006,10,11,07,09,5.60
2006,10,11,07,10,5.60
2006,10,11,07,11,5.60
2006,10,11,07,12,5.60
2006,10,11,07,13,5.70
2006,10,11,07,14,5.70
2006,10,11,07,15,5.70
2006,10,11,07,16,5.70
2006,10,11,07,17,5.70
2006,10,11,07,18,5.70
2006,10,11,07,19,5.70
2006,10,11,07,20,5.60
2006,10,11,07,21,5.60
2006,10,11,07,22,5.60
2006,10,11,07,23,5.50
2006,10,11,07,24,5.40
2006,10,11,07,25,5.40
2006,10,11,07,26,5.40
2006,10,11,07,27,5.40
2006,10,11,07,28,5.40
2006,10,11,07,29,5.40
2006,10,11,07,30,5.30
2006,10,11,07,31,5.30
2006,10,11,07,32,5.30
2006,10,11,07,33,5.30
2006,10,11,07,34,5.30
2006,10,11,07,35,5.30
2006,10,11,07,36,5.30
2006,10,11,07,37,5.30
2006,10,11,07,38,5.30
2006,10,11,07,39,5.30
2006,10,11,07,40,5.30
2006,10,11,07,41,5.30
2006,10,11,07,42,5.30
2006,10,11,07,43,5.30
2006,10,11,07,44,5.30
2006,10,11,07,45,5.30
2006,10,11,07,46,5.30
2006,10,11,07,47,5.40
2006,10,11,07,48,5.40
2006,10,11,07,49,5.40
2006,10,11,07,50,5.50
2006,10,11,07,51,5.50
2006,10,11,07,52,5.50
2006,10,11,07,53,5.60
2006,10,11,07,54,5.60
2006,10,11,07,55,5.70
2006,10,11,07,56,5.70
2006,10,11,07,57,5.70
2006,10,11,07,58,5.70
2006,10,11,07,59,5.70
2006,10,11,08,00,5.70
2006,10,11,08,01,5.80
2006,10,11,08,02,5.80
2006,10,11,08,03,5.90
2006,10,11,08,04,5.90
2006,10,11,08,05,6.00
2006,10,11,08,06,6.00
2006,10,11,08,07,6.00
2006,10,11,08,08,6.10
2006,10,11,08,09,6.10
2006,10,11,08,10,6.10
2006,10,11,08,11,6.20
2006,10,11,08,12,6.20
2006,10,11,08,13,6.20
2006,10,11,08,14,6.30
2006,10,11,08,15,6.30
2006,10,11,08,16,6.30
2006,10,11,08,17,6.40
2006,10,11,08,18,6.40
2006,10,11,08,19,6.40
2006,10,11,08,20,6.40
2006,10,11,08,21,6.40
2006,10,11,08,22,6.40
2006,10,11,08,23,6.40
2006,10,11,08,24,6.40
2006,10,11,08,25,6.40
2006,10,11,08,26,6.50
2006,10,11,08,27,6.60
2006,10,11,08,28,6.60
2006,10,11,08,29,6.60
2006,10,11,08,30,6.60
2006,10,11,08,31,6.70
2006,10,11,08,32,6.80
2006,10,11,08,33,6.90
2006,10,11,08,34,7.00
2006,10,11,08,35,7.10
2006,10,11,08,36,7.20
2006,10,11,08,37,7.20
2006,10,11,08,38,7.30
2006,10,11,08,39,7.40
2006,10,11,08,40,7.50
2006,10,11,08,41,7.60
2006,10,11,08,42,7.70
2006,10,11,08,43,7.80
2006,10,11,08,44,7.90
2006,10,11,08,45,7.90
2006,10,11,08,46,7.90
2006,10,11,08,47,7.90
2006,10,11,08,48,7.90
2006,10,11,08,49,8.00
2006,10,11,08,50,8.00
2006,10,11,08,51,8.10
2006,10,11,08,52,8.20
2006,10,11,08,53,8.30
2006,10,11,08,54,8.30
2006,10,11,08,55,8.40
2006,10,11,08,56,8.50
2006,10,11,08,57,8.50
2006,10,11,08,58,8.50
2006,10,11,08,59,8.50
2006,10,11,09,00,8.60
2006,10,11,09,01,8.60
2006,10,11,09,02,8.70
2006,10,11,09,03,8.90
2006,10,11,09,04,8.90
2006,10,11,09,05,9.00
2006,10,11,09,06,9.00
2006,10,11,09,07,9.00
2006,10,11,09,08,9.00
2006,10,11,09,09,9.00
2006,10,11,09,10,9.00
2006,10,11,09,11,9.00
2006,10,11,09,12,9.10
2006,10,11,09,13,9.20
2006,10,11,09,14,9.30
2006,10,11,09,15,9.40
2006,10,11,09,16,9.50
2006,10,11,09,17,9.50
2006,10,11,09,18,9.80
2006,10,11,09,19,10.00
2006,10,11,09,20,10.20
2006,10,11,09,21,10.40
2006,10,11,09,22,10.60
2006,10,11,09,23,10.80
2006,10,11,09,24,10.90
2006,10,11,09,25,11.00
2006,10,11,09,26,11.10
2006,10,11,09,27,11.20
2006,10,11,09,28,11.20
2006,10,11,09,29,11.30
2006,10,11,09,30,11.40
2006,10,11,09,31,11.50
2006,10,11,09,32,11.60
2006,10,11,09,33,11.60
2006,10,11,09,34,11.80
2006,10,11,09,35,11.80
2006,10,11,09,36,11.90
2006,10,11,09,37,12.00
2006,10,11,09,38,12.10
2006,10,11,09,39,12.20
2006,10,11,09,40,12.20
2006,10,11,09,41,12.30
2006,10,11,09,42,12.30
2006,10,11,09,43,12.40
2006,10,11,09,44,12.40
2006,10,11,09,45,12.50
2006,10,11,09,46,12.60
2006,10,11,09,47,12.60
2006,10,11,09,48,12.70
2006,10,11,09,49,12.80
2006,10,11,09,50,12.80
2006,10,11,09,51,12.90
2006,10,11,09,52,12.90
2006,10,11,09,53,13.00
2006,10,11,09,54,13.00
2006,10,11,09,55,13.10
2006,10,11,09,56,13.20
2006,10,11,09,57,13.30
2006,10,11,09,58,13.30
2006,10,11,09,59,13.40
2006,10,11,10,00,13.50
2006,10,11,10,01,13.50
2006,10,11,10,02,13.60
2006,10,11,10,03,13.60
2006,10,11,10,04,13.60
2006,10,11,10,05,13.70
2006,10,11,10,06,13.70
2006,10,11,10,07,13.80
2006,10,11,10,08,13.90
2006,10,11,10,09,13.90
2006,10,11,10,10,14.00
2006,10,11,10,11,14.10
2006,10,11,10,12,14.20
2006,10,11,10,13,14.20
2006,10,11,10,14,14.20
2006,10,11,10,15,14.50
2006,10,11,10,16,14.50
2006,10,11,10,17,14.50
2006,10,11,10,18,14.60
2006,10,11,10,19,14.60
2006,10,11,10,20,14.60
2006,10,11,10,21,14.70
2006,10,11,10,22,14.70
2006,10,11,10,23,14.70
2006,10,11,10,24,14.70
2006,10,11,10,25,14.70
2006,10,11,10,26,14.70
2006,10,11,10,27,14.70
2006,10,11,10,28,14.80
2006,10,11,10,29,14.80
2006,10,11,10,30,14.80
2006,10,11,10,31,14.90
2006,10,11,10,32,14.90
2006,10,11,10,33,14.90
2006,10,11,10,34,15.00
2006,10,11,10,35,14.90
2006,10,11,10,36,15.00
2006,10,11,10,37,15.00
2006,10,11,10,38,15.10
2006,10,11,10,39,15.10
2006,10,11,10,40,15.10
2006,10,11,10,41,15.10
2006,10,11,10,42,15.20
2006,10,11,10,43,15.10
2006,10,11,10,44,15.20
2006,10,11,10,45,15.20
2006,10,11,10,46,15.30
2006,10,11,10,47,15.40
2006,10,11,10,48,15.50
2006,10,11,10,49,15.50
2006,10,11,10,50,15.60
2006,10,11,10,51,15.70
2006,10,11,10,52,15.70
2006,10,11,10,53,15.80
2006,10,11,10,54,15.80
2006,10,11,10,55,15.80
2006,10,11,10,56,15.90
2006,10,11,10,57,15.90
2006,10,11,10,58,16.10
2006,10,11,10,59,16.10
2006,10,11,11,00,16.10
2006,10,11,11,01,16.10
2006,10,11,11,02,16.20
2006,10,11,11,03,16.20
2006,10,11,11,04,16.20
2006,10,11,11,05,16.20
2006,10,11,11,06,16.20
2006,10,11,11,07,16.20
2006,10,11,11,08,16.20
2006,10,11,11,09,16.20
2006,10,11,11,10,16.30
2006,10,11,11,11,16.30
2006,10,11,11,12,16.40
2006,10,11,11,13,16.40
2006,10,11,11,14,16.40
2006,10,11,11,15,16.40
2006,10,11,11,16,16.40
2006,10,11,11,17,16.40
2006,10,11,11,18,16.40
2006,10,11,11,19,16.50
2006,10,11,11,20,16.60
2006,10,11,11,21,16.70
2006,10,11,11,22,16.70
2006,10,11,11,23,16.60
2006,10,11,11,24,16.60
2006,10,11,11,25,16.70
2006,10,11,11,26,16.70
2006,10,11,11,27,16.70
2006,10,11,11,28,16.70
2006,10,11,11,29,16.70
2006,10,11,11,30,16.80
2006,10,11,11,31,16.80
2006,10,11,11,32,16.80
2006,10,11,11,33,16.80
2006,10,11,11,34,16.80
2006,10,11,11,35,16.80
2006,10,11,11,36,16.80
2006,10,11,11,37,16.70
2006,10,11,11,38,16.70
2006,10,11,11,39,16.70
2006,10,11,11,40,16.70
2006,10,11,11,41,16.70
2006,10,11,11,42,16.70
2006,10,11,11,43,16.70
2006,10,11,11,44,16.70
2006,10,11,11,45,16.70
2006,10,11,11,46,16.60
2006,10,11,11,47,16.50
2006,10,11,11,48,16.40
2006,10,11,11,49,16.40
2006,10,11,11,50,16.50
2006,10,11,11,51,16.70
2006,10,11,11,52,16.70
2006,10,11,11,53,16.80
2006,10,11,11,54,16.90
2006,10,11,11,55,16.90
2006,10,11,11,56,16.90
2006,10,11,11,57,17.00
2006,10,11,11,58,17.00
2006,10,11,11,59,17.00
2006,10,11,12,00,17.10
2006,10,11,12,01,17.10
2006,10,11,12,02,17.20
2006,10,11,12,03,17.30
2006,10,11,12,04,17.30
2006,10,11,12,05,17.30
2006,10,11,12,06,17.40
2006,10,11,12,07,17.40
2006,10,11,12,08,17.50
2006,10,11,12,09,17.50
2006,10,11,12,10,17.60
2006,10,11,12,11,17.70
2006,10,11,12,12,17.70
2006,10,11,12,13,17.70
2006,10,11,12,14,17.70
2006,10,11,12,15,17.70
2006,10,11,12,16,17.70
2006,10,11,12,17,17.70
2006,10,11,12,18,17.70
2006,10,11,12,19,17.70
2006,10,11,12,20,17.70
2006,10,11,12,21,17.70
2006,10,11,12,22,17.80
2006,10,11,12,23,17.80
2006,10,11,12,24,17.80
2006,10,11,12,25,17.80
2006,10,11,12,26,17.80
2006,10,11,12,27,17.80
2006,10,11,12,28,17.80
2006,10,11,12,29,17.70
2006,10,11,12,30,17.70
2006,10,11,12,31,17.70
2006,10,11,12,32,17.60
2006,10,11,12,33,17.60
2006,10,11,12,34,17.60
2006,10,11,12,35,17.60
2006,10,11,12,36,17.60
2006,10,11,12,37,17.60
2006,10,11,12,38,17.60
2006,10,11,12,39,17.60
2006,10,11,12,40,17.70
2006,10,11,12,41,17.70
2006,10,11,12,42,17.60
2006,10,11,12,43,17.60
2006,10,11,12,44,17.50
2006,10,11,12,45,17.60
2006,10,11,12,46,17.60
2006,10,11,12,47,17.60
2006,10,11,12,48,17.70
2006,10,11,12,49,17.70
2006,10,11,12,50,17.70
2006,10,11,12,51,17.70
2006,10,11,12,52,17.70
2006,10,11,12,53,17.70
2006,10,11,12,54,17.70
2006,10,11,12,55,17.70
2006,10,11,12,56,17.60
2006,10,11,12,57,17.50
2006,10,11,12,58,17.60
2006,10,11,12,59,17.60
2006,10,11,13,00,17.70
2006,10,11,13,01,17.70
2006,10,11,13,02,17.70
2006,10,11,13,03,17.70
2006,10,11,13,04,17.70
2006,10,11,13,05,17.80
2006,10,11,13,06,17.90
2006,10,11,13,07,17.90
2006,10,11,13,08,17.80
2006,10,11,13,09,17.80
2006,10,11,13,10,17.70
2006,10,11,13,11,17.70
2006,10,11,13,12,17.70
2006,10,11,13,13,17.70
2006,10,11,13,14,17.70
2006,10,11,13,15,17.70
2006,10,11,13,16,17.70
2006,10,11,13,17,17.70
2006,10,11,13,18,17.70
2006,10,11,13,19,17.70
2006,10,11,13,20,17.70
2006,10,11,13,21,17.80
2006,10,11,13,22,17.80
2006,10,11,13,23,17.90
2006,10,11,13,24,17.90
2006,10,11,13,25,18.00
2006,10,11,13,26,18.10
2006,10,11,13,27,18.10
2006,10,11,13,28,18.10
2006,10,11,13,29,18.20
2006,10,11,13,30,18.20
2006,10,11,13,31,18.30
2006,10,11,13,32,18.30
2006,10,11,13,33,18.30
2006,10,11,13,34,18.30
2006,10,11,13,35,18.30
2006,10,11,13,36,18.40
2006,10,11,13,37,18.50
2006,10,11,13,38,18.60
2006,10,11,13,39,18.60
2006,10,11,13,40,18.70
2006,10,11,13,41,18.80
2006,10,11,13,42,18.80
2006,10,11,13,43,18.90
2006,10,11,13,44,18.90
2006,10,11,13,45,19.00
2006,10,11,13,46,19.10
2006,10,11,13,47,19.10
2006,10,11,13,48,19.10
2006,10,11,13,49,19.10
2006,10,11,13,50,19.10
2006,10,11,13,51,19.10
2006,10,11,13,52,19.10
2006,10,11,13,53,19.10
2006,10,11,13,54,19.10
2006,10,11,13,55,19.10
2006,10,11,13,56,19.00
2006,10,11,13,57,19.00
2006,10,11,13,58,19.10
2006,10,11,13,59,19.10
2006,10,11,14,00,19.10
2006,10,11,14,01,18.90
2006,10,11,14,02,18.90
2006,10,11,14,03,19.10
2006,10,11,14,04,19.10
2006,10,11,14,05,19.10
2006,10,11,14,06,19.20
2006,10,11,14,07,19.20
2006,10,11,14,08,19.20
2006,10,11,14,09,19.20
2006,10,11,14,10,19.20
2006,10,11,14,11,19.20
2006,10,11,14,12,19.20
2006,10,11,14,13,19.20
2006,10,11,14,14,19.20
2006,10,11,14,15,19.20
2006,10,11,14,16,19.30
2006,10,11,14,17,19.30
2006,10,11,14,18,19.20
2006,10,11,14,19,19.10
2006,10,11,14,20,19.10
2006,10,11,14,21,19.10
2006,10,11,14,22,19.10
2006,10,11,14,23,19.10
2006,10,11,14,24,19.20
2006,10,11,14,25,19.20
2006,10,11,14,26,19.30
2006,10,11,14,27,19.30
2006,10,11,14,28,19.30
2006,10,11,14,29,19.30
2006,10,11,14,30,19.30
2006,10,11,14,31,19.50
2006,10,11,14,32,19.50
2006,10,11,14,33,19.60
2006,10,11,14,34,19.60
2006,10,11,14,35,19.60
2006,10,11,14,36,19.60
2006,10,11,14,37,19.40
2006,10,11,14,38,19.10
2006,10,11,14,39,18.90
2006,10,11,14,40,18.70
2006,10,11,14,41,18.60
2006,10,11,14,42,18.60
2006,10,11,14,43,18.50
2006,10,11,14,44,18.40
2006,10,11,14,45,18.40
2006,10,11,14,46,18.30
2006,10,11,14,47,18.30
2006,10,11,14,48,18.20
2006,10,11,14,49,18.30
2006,10,11,14,50,18.30
2006,10,11,14,51,18.40
2006,10,11,14,52,18.50
2006,10,11,14,53,18.50
2006,10,11,14,54,18.50
2006,10,11,14,55,18.60
2006,10,11,14,56,18.60
2006,10,11,14,57,18.60
2006,10,11,14,58,18.60
2006,10,11,14,59,18.50
2006,10,11,15,00,18.40
2006,10,11,15,01,18.20
2006,10,11,15,02,18.00
2006,10,11,15,03,17.80
2006,10,11,15,04,17.60
2006,10,11,15,05,17.50
2006,10,11,15,06,17.30
2006,10,11,15,07,17.10
2006,10,11,15,08,16.90
2006,10,11,15,09,16.70
2006,10,11,15,10,16.60
2006,10,11,15,11,16.40
2006,10,11,15,12,16.30
2006,10,11,15,13,16.30
2006,10,11,15,14,16.30
2006,10,11,15,15,16.30
2006,10,11,15,16,16.30
2006,10,11,15,17,16.40
2006,10,11,15,18,16.40
2006,10,11,15,19,16.40
2006,10,11,15,20,16.40
2006,10,11,15,21,16.40
2006,10,11,15,22,16.40
2006,10,11,15,23,16.30
2006,10,11,15,24,16.30
2006,10,11,15,25,16.30
2006,10,11,15,26,16.30
2006,10,11,15,27,16.40
2006,10,11,15,28,16.50
2006,10,11,15,29,16.60
2006,10,11,15,30,16.70
2006,10,11,15,31,16.90
2006,10,11,15,32,17.00
2006,10,11,15,33,17.00
2006,10,11,15,34,17.10
2006,10,11,15,35,17.00
2006,10,11,15,36,16.90
2006,10,11,15,37,16.90
2006,10,11,15,38,16.80
2006,10,11,15,39,16.60
2006,10,11,15,40,16.50
2006,10,11,15,41,16.40
2006,10,11,15,42,16.40
2006,10,11,15,43,16.40
2006,10,11,15,44,16.40
2006,10,11,15,45,16.40
2006,10,11,15,46,16.30
2006,10,11,15,47,16.30
2006,10,11,15,48,16.20
2006,10,11,15,49,16.20
2006,10,11,15,50,16.20
2006,10,11,15,51,16.20
2006,10,11,15,52,16.10
2006,10,11,15,53,16.20
2006,10,11,15,54,16.20
2006,10,11,15,55,16.20
2006,10,11,15,56,16.30
2006,10,11,15,57,16.30
2006,10,11,15,58,16.30
2006,10,11,15,59,16.30
2006,10,11,16,00,16.30
2006,10,11,16,01,16.30
2006,10,11,16,02,16.40
2006,10,11,16,03,16.50
2006,10,11,16,04,16.60
2006,10,11,16,05,16.70
2006,10,11,16,06,16.80
2006,10,11,16,07,16.80
2006,10,11,16,08,16.90
2006,10,11,16,09,16.90
2006,10,11,16,10,17.00
2006,10,11,16,11,17.00
2006,10,11,16,12,17.00
2006,10,11,16,13,17.00
2006,10,11,16,14,17.00
2006,10,11,16,15,17.10
2006,10,11,16,16,17.10
2006,10,11,16,17,17.00
2006,10,11,16,18,17.00
2006,10,11,16,19,16.90
2006,10,11,16,20,16.90
2006,10,11,16,21,16.80
2006,10,11,16,22,16.70
2006,10,11,16,23,16.70
2006,10,11,16,24,16.60
2006,10,11,16,25,16.60
2006,10,11,16,26,16.60
2006,10,11,16,27,16.40
2006,10,11,16,28,16.40
2006,10,11,16,29,16.40
2006,10,11,16,30,16.50
2006,10,11,16,31,16.60
2006,10,11,16,32,16.60
2006,10,11,16,33,16.60
2006,10,11,16,34,16.60
2006,10,11,16,35,16.60
2006,10,11,16,36,16.60
2006,10,11,16,37,16.60
2006,10,11,16,38,16.50
2006,10,11,16,39,16.40
2006,10,11,16,40,16.30
2006,10,11,16,41,16.30
2006,10,11,16,42,16.30
2006,10,11,16,43,16.20
2006,10,11,16,44,16.20
2006,10,11,16,45,16.20
2006,10,11,16,46,16.20
2006,10,11,16,47,16.20
2006,10,11,16,48,16.20
2006,10,11,16,49,16.20
2006,10,11,16,50,16.20
2006,10,11,16,51,16.20
2006,10,11,16,52,16.20
2006,10,11,16,53,16.20
2006,10,11,16,54,16.20
2006,10,11,16,55,16.20
2006,10,11,16,56,16.20
2006,10,11,16,57,16.20
2006,10,11,16,58,16.20
2006,10,11,16,59,16.20
2006,10,11,17,00,16.20
2006,10,11,17,01,16.20
2006,10,11,17,02,16.20
2006,10,11,17,03,16.20
2006,10,11,17,04,16.20
2006,10,11,17,05,16.10
2006,10,11,17,06,16.10
2006,10,11,17,07,16.10
2006,10,11,17,08,16.10
2006,10,11,17,09,16.20
2006,10,11,17,10,16.20
2006,10,11,17,11,16.20
2006,10,11,17,12,16.20
2006,10,11,17,13,16.20
2006,10,11,17,14,16.20
2006,10,11,17,15,16.20
2006,10,11,17,16,16.20
2006,10,11,17,17,16.20
2006,10,11,17,18,16.10
2006,10,11,17,19,16.10
2006,10,11,17,20,16.10
2006,10,11,17,21,16.10
2006,10,11,17,22,15.90
2006,10,11,17,23,15.90
2006,10,11,17,24,15.90
2006,10,11,17,25,15.90
2006,10,11,17,26,15.80
2006,10,11,17,27,15.80
2006,10,11,17,28,15.90
2006,10,11,17,29,15.90
2006,10,11,17,30,15.90
2006,10,11,17,31,15.90
2006,10,11,17,32,15.90
2006,10,11,17,33,15.90
2006,10,11,17,34,16.00
2006,10,11,17,35,16.10
2006,10,11,17,36,16.10
2006,10,11,17,37,16.10
2006,10,11,17,38,16.20
2006,10,11,17,39,16.20
2006,10,11,17,40,16.30
2006,10,11,17,41,16.30
2006,10,11,17,42,16.40
2006,10,11,17,43,16.40